EW3163 Weather Reports


Display with metric or nautical units.
time (UTC)temp
F
wind
direction
speed
MPH
gust
MPH
rain 1hr
in
rain 24hr
in
rain mn
in
humidity
%
barometer
mb
20260901113103 70 280 0.0 7.0 0.00 0.00 0.00 67 1014.3
20260901111531 68 164 0.0 6.0 0.00 0.00 0.00 69 1014.4
20260901110031 68 76 0.0 12.0 0.00 0.00 0.00 68 1014.5
20260901104533 68 310 0.0 7.0 0.00 0.00 0.00 69 1014.5
20260901103028 68 139 0.0 11.0 0.00 0.00 0.00 69 1014.6
20260901101536 66 107 0.0 8.0 0.00 0.00 0.00 73 1014.5
20260901100020 64 286 1.0 8.0 0.00 0.00 0.00 74 1014.4
20260901094519 64 124 0.0 8.0 0.00 0.00 0.00 75 1014.7
20260901093022 64 52 0.0 7.0 0.00 0.00 0.00 76 1014.6
20260901091521 64 167 0.0 8.0 0.00 0.00 0.00 75 1014.7
20260901090016 63 143 0.0 3.0 0.00 0.00 0.00 79 1014.6
20260901084526 63 198 0.0 3.0 0.00 0.00 0.00 79 1014.5
20260901083012 62 81 0.0 7.0 0.00 0.00 0.00 81 1014.7
20260901081509 61 188 0.0 3.0 0.00 0.00 0.00 83 1014.6
20260901080007 61 340 0.0 1.0 0.00 0.00 0.00 85 1014.6
20260901074502 59 183 0.0 5.0 0.00 0.00 0.00 87 1014.7
20260901073103 58 150 0.0 1.0 0.00 0.00 0.00 89 1014.6
20260901071554 57 130 0.0 0.0 0.00 0.00 0.00 91 1014.8
20260901070100 56 126 0.0 0.0 0.00 0.00 0.00 90 1014.9
20260901064548 0 0.0 0.0 0.00 0.00 0.00 1015.0
20260901063047 0 0.0 0.0 0.00 0.00 0.00 1014.9
20260901061539 0 0.0 0.0 0.00 0.00 0.00 1014.9
20260901060035 0 0.0 0.0 0.00 0.00 0.00 1015.0
20260901054530 0 0.0 0.0 0.00 0.00 0.00 1014.9
20260901053031 0 0.0 0.0 0.00 0.00 0.00 1014.9
20260901051522 0 0.0 0.0 0.00 0.00 0.00 1014.9
20260901050017 0 0.0 0.0 0.00 0.00 0.00 1014.8
20260901044516 54 129 0.0 0.0 0.00 0.00 0.00 87 1014.8
20260901043020 55 134 0.0 0.0 0.00 0.00 0.00 86 1014.9
20260901041513 55 134 0.0 0.0 0.00 0.00 0.00 86 1014.9
20260901040012 55 133 0.0 0.0 0.00 0.00 0.00 85 1014.9
20260901034510 55 133 0.0 0.0 0.00 0.00 0.00 85 1015.0
20260901033011 55 141 0.0 1.0 0.00 0.00 0.00 85 1015.0
20260901031509 55 133 0.0 0.0 0.00 0.00 0.00 84 1015.0
20260901030015 55 124 0.0 0.0 0.00 0.00 0.00 84 1015.0
20260901024508 55 106 0.0 0.0 0.00 0.00 0.00 84 1015.0
20260901023007 55 106 0.0 1.0 0.00 0.00 0.00 84 1015.0
20260901021508 55 108 0.0 0.0 0.00 0.00 0.00 84 1015.1
20260901020020 54 25 0.0 0.0 0.00 0.00 0.00 85 1015.1
20260901014505 54 350 0.0 0.0 0.00 0.00 0.00 85 1015.1
20260901013006 54 350 0.0 0.0 0.00 0.00 0.00 84 1015.2
20260901011503 54 352 0.0 0.0 0.00 0.00 0.00 83 1015.2
20260901010003 54 352 0.0 0.0 0.00 0.00 0.00 83 1015.1
20260901004603 55 352 0.0 0.0 0.00 0.00 0.00 81 1015.0
20260901003114 55 354 0.0 0.0 0.00 0.00 0.00 80 1015.0
20260901001607 56 342 0.0 1.0 0.00 0.00 0.00 79 1015.1
20260901000057 56 331 0.0 0.0 0.00 0.00 0.00 78 1015.2
20260831234603 56 9 0.0 0.0 0.00 0.00 0.00 78 1015.1
20260831233051 56 354 0.0 1.0 0.00 0.00 0.00 79 1015.0
20260831231549 56 332 0.0 1.0 0.00 0.00 0.00 79 1014.9
20260831230047 57 34 0.0 1.0 0.00 0.00 0.00 79 1014.9
20260831224543 57 333 0.0 1.0 0.00 0.00 0.00 79 1014.9
20260831223039 57 349 0.0 2.0 0.00 0.00 0.00 78 1014.8
20260831221540 57 5 0.0 1.0 0.00 0.00 0.00 78 1014.7
20260831220038 57 10 0.0 0.0 0.00 0.00 0.00 78 1014.6
20260831214530 57 13 0.0 1.0 0.00 0.07 0.00 79 1014.6
20260831213033 57 72 0.0 1.0 0.00 0.07 0.00 79 1014.6
20260831211522 57 122 0.0 0.0 0.00 0.07 0.00 79 1014.4
20260831210020 57 19 0.0 1.0 0.00 0.07 0.00 79 1014.3
20260831204514 57 3 0.0 1.0 0.00 0.19 0.00 78 1014.1
20260831203008 57 7 0.0 1.0 0.00 0.19 0.00 78 1013.9
20260831201503 58 3 0.0 1.0 0.00 0.19 0.00 78 1013.9
20260831200059 58 4 0.0 1.0 0.00 0.19 0.00 78 1013.6
20260831194629 58 4 0.0 0.0 0.00 0.19 0.00 79 1013.4
20260831193052 58 348 0.0 1.0 0.00 0.19 0.00 79 1013.2
20260831191547 59 18 0.0 1.0 0.00 0.19 0.00 78 1013.1
20260831190045 59 84 0.0 1.0 0.00 0.19 0.00 77 1012.7
20260831184554 60 27 0.0 2.0 0.00 0.19 0.00 75 1012.4
20260831183036 60 328 0.0 5.0 0.00 0.19 0.00 74 1011.9
20260831181527 61 291 0.0 2.0 0.00 0.19 0.00 73 1011.9
20260831180028 62 335 0.0 5.0 0.00 0.19 0.00 72 1011.6
20260831174516 63 23 0.0 6.0 0.00 0.19 0.00 72 1011.5
20260831173011 64 349 0.0 5.0 0.00 0.19 0.00 70 1011.2
20260831171507 65 356 0.0 4.0 0.00 0.19 0.00 68 1011.1
20260831170002 66 335 0.0 2.0 0.00 0.27 0.00 67 1010.9
20260831164557 66 350 0.0 2.0 0.00 0.27 0.00 69 1010.7
20260831163055 67 20 0.0 4.0 0.00 0.27 0.00 68 1010.5
20260831161549 67 38 0.0 4.0 0.00 0.27 0.00 67 1010.3
20260831160051 68 48 0.0 5.0 0.00 0.27 0.00 68 1010.1
20260831154542 68 86 0.0 5.0 0.00 0.27 0.00 68 1009.7
20260831153037 67 314 0.0 8.0 0.00 0.27 0.00 72 1009.7
20260831151533 68 319 0.0 4.0 0.00 0.27 0.00 68 1009.4
20260831150027 68 314 0.0 2.0 0.00 0.27 0.00 70 1009.2
20260831144529 68 1 0.0 7.0 0.00 0.27 0.00 72 1009.1
20260831143024 67 65 0.0 1.0 0.00 0.27 0.00 73 1009.0
20260831141513 68 336 1.0 6.0 0.00 0.27 0.00 69 1009.0
20260831140009 68 345 0.0 1.0 0.00 0.27 0.00 70 1008.7
20260831134505 68 98 0.0 0.0 0.00 0.27 0.00 71 1008.6
20260831133100 68 323 0.0 1.0 0.00 0.27 0.00 73 1008.5
20260831131556 67 284 0.0 2.0 0.00 0.27 0.00 73 1008.3
20260831130052 68 302 0.0 5.0 0.00 0.27 0.00 70 1008.1
20260831124546 68 20 0.0 4.0 0.00 0.27 0.00 72 1007.8
20260831123041 68 30 0.0 2.0 0.00 0.27 0.00 71 1007.6
20260831121538 68 33 0.0 1.0 0.00 0.27 0.00 71 1007.5
20260831120034 68 318 0.0 0.0 0.00 0.27 0.00 72 1007.3
20260831114532 67 31 0.0 1.0 0.00 0.27 0.00 75 1007.2